This is the latest recevied weather packets stored in our database for station/object AC5JC-1. If no packets are shown the sender has not sent any weather packets the latest 10 day(s).
| Time | Temp. | Humidity | Pressure | Rain* | Wind** | Luminosity | Snow |
|---|---|---|---|---|---|---|---|
| 1777928756 | 28.33° C | 61% | 1007.4 hPa | 0 mm | - | 575 W/m² | - |
| 1777927574 | 27.78° C | 61% | 1007.9 hPa | 0 mm | - | 590 W/m² | - |
| 1777925140 | 27.22° C | 63% | 1008.7 hPa | 0 mm | - | 611 W/m² | - |
| 1777924821 | 27.22° C | 63% | 1008.8 hPa | 0 mm | - | 559 W/m² | - |
| 1777923621 | 27.22° C | 63% | 1009.2 hPa | 0 mm | - | 581 W/m² | - |
| 1777922484 | 27.22° C | 63% | 1009.6 hPa | 0 mm | - | 667 W/m² | - |
| 1777921829 | 26.67° C | 63% | 1009.6 hPa | 0 mm | - | 682 W/m² | - |
| 1777921252 | 26.11° C | 64% | 1009.8 hPa | 0 mm | - | 707 W/m² | - |
| 1777920981 | 26.11° C | 63% | 1009.8 hPa | 0 mm | - | 592 W/m² | - |
| 1777920645 | 26.67° C | 63% | 1010 hPa | 0 mm | - | 716 W/m² | - |
| 1777920073 | 26.11° C | 62% | 1010.1 hPa | 0 mm | - | 674 W/m² | - |
| 1777919126 | 25.56° C | 64% | 1010.3 hPa | 0 mm | - | 652 W/m² | - |
| 1777918229 | 25.56° C | 65% | 1010.6 hPa | 0 mm | - | 652 W/m² | - |
| 1777917653 | 25.56° C | 64% | 1010.8 hPa | 0 mm | - | 621 W/m² | - |
| 1777915593 | 25° C | 65% | 1011.5 hPa | 0 mm | - | 675 W/m² | - |
| 1777913141 | 23.89° C | 67% | 1012.1 hPa | 0 mm | - | 718 W/m² | - |
| 1777912821 | 23.89° C | 69% | 1012.1 hPa | 0 mm | - | 649 W/m² | - |
| 1777910735 | 22.22° C | 69% | 1012.3 hPa | 0 mm | - | 610 W/m² | - |
| 1777908675 | 21.11° C | 71% | 1012.5 hPa | 0 mm | - | 550 W/m² | - |
| 1777907135 | 21.11° C | 71% | 1012.6 hPa | 0 mm | - | 496 W/m² | - |
| 1777906235 | 20° C | 73% | 1012.8 hPa | 0 mm | - | 427 W/m² | - |
| 1777902634 | 18.33° C | 78% | 1013.1 hPa | 0 mm | - | 207 W/m² | - |
| 1777901755 | 17.78° C | 80% | 1013.1 hPa | 0 mm | - | 148 W/m² | - |
| 1777901155 | 17.22° C | 81% | 1012.8 hPa | 0 mm | - | 127 W/m² | - |
| 1777899636 | 17.22° C | 81% | 1013.1 hPa | 0 mm | - | 96 W/m² | - |
* Rain latest hour (hover to see other rain measurements)
** Current wind speed in m/s (hover to see current wind gust speed)